Flag for Germany Weather past 2 weeks in Erding, Bavaria, Germany

55 °F

Rain. Partly cloudy.

Feels Like: 55 °F
Forecast: 47 / 59 °F
Wind: 2 mph from North

Location: Munich / Franz Josef Strauss Airport

Current Time: Oct 7, 2015 at 2:48:54 AM

Latest Report: Oct 7, 2015 at 2:20 AM

Visibility: N/A

Pressure: 29.83 "Hg

Humidity: 100%

Dew point: 55 °F

Location of ErdingLocation

Historic Weather in Erding — Graph


Erding temperature yesterday

Maximum temperature yesterday: 72 °F (at 2:20 PM)
Minimum temperature yesterday: 52 °F (at 12:50 AM)
Average temperature yesterday: 60 °F

Past Weeks' High & Low Weather Summary

High72 °F (Oct 6, 2:20 PM)100% (Sep 22, 1:20 AM)30.51 "Hg (Sep 22, 1:20 AM)
Low34 °F (Oct 5, 3:20 AM)37% (Oct 1, 3:50 PM)29.71 "Hg (Sep 22, 3:20 PM)
Average52 °F76%30.15 "Hg
* Reported Sep 22 1:20 AM — Oct 7 1:20 AM, Erding, Weather by CustomWeather, © 2015

Note: Actual official high and low records may vary slightly from our data, if they occured in-between our weather recording intervals... More about our weather records


Erding weather history for previous 24 hours

Time TempWeatherWind HumidityBarometerVisibility
1:20 AM
Wed, Oct 7
55 °FRain. Overcast.5 mph100%29.83 "HgN/A
12:50 AM55 °FRain. Overcast.5 mph100%29.83 "HgN/A
12:20 AM55 °FRain. Partly cloudy.6 mph100%29.83 "HgN/A
11:50 PM
Tue, Oct 6
55 °FLight rain. Partly cloudy.5 mph100%29.86 "HgN/A
11:20 PM57 °FLight rain. Partly cloudy.5 mph94%29.86 "HgN/A
10:50 PM57 °FSprinkles. Partly cloudy.2 mph94%29.86 "HgN/A
10:20 PM57 °FSprinkles. Partly cloudy.1 mph94%29.86 "HgN/A
9:50 PM57 °FSprinkles. Partly cloudy.2 mph94%29.83 "HgN/A
9:20 PM57 °FSprinkles. Partly cloudy.8 mph94%29.83 "HgN/A
8:50 PM57 °FRain showers. Partly cloudy.6 mph94%29.83 "HgN/A
8:20 PM57 °FRain showers. Mostly cloudy.9 mph94%29.83 "HgN/A
7:50 PM59 °FLight rain. Overcast.16 mph88%29.80 "HgN/A
7:20 PM64 °FLight rain. Overcast.9 mph73%29.77 "HgN/A
6:50 PM64 °FSunny.2 mph73%29.74 "Hg10 mi
6:20 PM66 °FSunny.2 mph68%29.74 "Hg10 mi
5:50 PM66 °FSunny.6 mph68%29.71 "Hg10 mi
5:20 PM68 °FSunny.6 mph64%29.71 "Hg10 mi
4:50 PM68 °FSunny.8 mph64%29.71 "Hg10 mi
4:20 PM68 °FSunny.9 mph64%29.71 "Hg10 mi
3:50 PM68 °FSunny.8 mph64%29.74 "Hg10 mi
3:20 PM70 °FPassing clouds.7 mph60%29.74 "HgN/A
2:50 PM70 °FSunny.9 mph60%29.74 "Hg10 mi
2:20 PM72 °FPassing clouds.10 mph57%29.74 "HgN/A
1:50 PM70 °FPassing clouds.10 mph60%29.74 "HgN/A
1:20 PM70 °FPassing clouds.8 mph60%29.77 "HgN/A
12:50 PM70 °FPassing clouds.6 mph64%29.77 "HgN/A
12:20 PM66 °FPassing clouds.6 mph73%29.77 "HgN/A
11:50 AM64 °FPassing clouds.6 mph73%29.80 "HgN/A
11:20 AM64 °FPassing clouds.6 mph73%29.80 "HgN/A
10:50 AM63 °FPassing clouds.5 mph77%29.80 "HgN/A
10:20 AM61 °FPassing clouds.5 mph83%29.80 "HgN/A
9:50 AM61 °FPassing clouds.3 mph83%29.80 "HgN/A
9:20 AM57 °FPassing clouds.3 mph94%29.80 "HgN/A
8:50 AM55 °FPassing clouds.3 mph94%29.80 "HgN/A
8:20 AM54 °FSunny.3 mph94%29.83 "Hg10 mi
7:50 AM52 °FFog.2 mph94%29.83 "Hg4 mi
7:20 AM52 °FPassing clouds.3 mph100%29.83 "Hg4 mi
6:20 AM52 °FPartly cloudy.2 mph100%29.83 "HgN/A
5:50 AM54 °FPartly cloudy.2 mph94%29.83 "HgN/A
5:20 AM52 °FPassing clouds.2 mph100%29.83 "Hg6 mi
4:50 AM52 °FPassing clouds.1 mph100%29.83 "Hg6 mi
4:20 AM52 °FDrizzle. Overcast.2 mph100%29.83 "Hg5 mi
3:50 AM52 °FOvercast.5 mph100%29.86 "Hg5 mi
3:20 AM52 °FLight rain. Overcast.1 mph100%29.86 "Hg5 mi
2:50 AM52 °FLight rain. Clear.2 mph94%29.86 "Hg5 mi
2:20 AM52 °FLight rain. Clear.3 mph94%29.89 "Hg5 mi
Weather by CustomWeather, © 2015

See weather overviewHow to use our weather pages